DELTA 1 DEB, 10706

Orbit data source: Space-Track

DELTA 1 DEB, 10706 is space debris in SSO originally from a launch on Thu, 29 Jul 1976 UTC launched from the Air Force Western Test Range (AFWTR). Debris objects in space refer to the collection of defunct objects orbiting the Earth. Examples of debris include non-operational satellites, rocket bodies, and fragments generated from explosions, collisions, or faulty payload assembly.

Loading next visibility...
DELTA 1 DEB details
Identifier
10706, 1976-077AB
Orbit
SSO
Last TLE update13 hours ago
Origin
Flag of USGSFC (US)
ManufacturerUnknown
MissionSpacecraft
Bus & MotorUnknown
MassUnknown
Launch date (UTC)
1976-07-29 (48 years ago)
Launch vehicleUnknown
Launch site
Air Force Western Test Range (AFWTR)
Object type
Payload
Rocket body
Debris
Shape & HBRUnknown
Radar Cross SectionSmall (<0.1 m²)

Expand to show TLE details & history

TLE from 13 hours ago
0 DELTA 1 DEB
1 10706U 76077AB  24361.05288604  .00000828  00000-0  26977-2 0  9991
2 10706 101.5663 196.3095 0387506 173.9127 352.5644 12.82529136250465
Epoch: 2024-12-26T01:16Z
Definitive object data (Epoch: 2024-12-26T01:16:09.353Z)
Latitude13.80631°
Longitude-94.89952°
Altitude1,037.142 km
Speed7.474 km/s
True Right ascension01h 16m 42s
True Declination13° 43' 47"
Sunlit
Object was in daylight at TLE epoch
Visualization TLE readout
Latitude61.42446°
Longitude-75.26268°
Altitude1,168.417 km
Speed7.356 km/s
Apparent Right ascension01h 57m 32s
Apparent Declination16° 43' 26"
Sunlit
Object is in full shadow
Visualization observer readout
Local Sidereal Time13:29:45
Azimuth352.062° N
Elevation-32.991°
Doppler factor1
Orbital elements
Apogee altitude1,627.455 km
Perigee altitude1,030.157 km
Semi-major axis7,706.943 km
Eccentricity0.0387506
Inclination101.5663°
RAAN196.3095°
Arg. of periapsis173.9127°
True anomaly351.96083°
Mean anomaly352.5644°
Eccentric anomaly352.2656°
Mean motion3.20789 °/min
BSTAR0.0026977
Orbital period112.22 mins
Loading maneuver chart data...
Loading historical data...
Loading historical data...
Loading historical data...
Loading historical data...
Loading historical data...
Loading historical data...
Loading historical data...

DELTA 1 DEB Visibility forecast

Observer location: undefined°, undefined

Span
Click to sort rows by Start time (UTC) header in descending order
Start Az.
Max El. time (UTC)
Max El. Az.
Max El.
End time (UTC)
End Az.
10 mins2024-12-27 01:23:58.072Z37.247° NE2024-12-27 01:28:58.072Z92.125° ESE29.627°2024-12-27 01:33:58.072Z157.795° S
10 mins2024-12-27 03:14:58.072Z356.395° N2024-12-27 03:19:58.072Z292.779° NW31.164°2024-12-27 03:24:58.072Z235.28° WSW
14 mins2024-12-27 12:06:58.072Z127.955° SE2024-12-27 12:13:58.072Z55.534° ENE35.891°2024-12-27 12:20:58.072Z355.138° N
11 mins2024-12-27 13:56:58.072Z195.78° SSW2024-12-27 14:03:58.072Z264.103° W34.292°2024-12-27 14:07:58.072Z312.108° NW
|